Flag for U.S.A. Weather past 2 weeks in St. Petersburg, Florida, U.S.A.

Now
66 °F

Overcast.


Feels Like: 66 °F
Forecast: 63 / 76 °F
Wind: 6 mph from Northeast

Location: Whitted Airport

Current Time: Dec 27, 2014 at 8:05:30 AM

Latest Report: Dec 27, 2014 at 6:53 AM


Visibility: 10 mi

Pressure: 30.19 "Hg

Humidity: 84%

Dew point: 61 °F

Location of St. PetersburgLocation

Historic Weather in St. Petersburg — Graph

°F

St. Petersburg temperature yesterday

Maximum temperature yesterday: 70 °F (at 2:53 PM)
Minimum temperature yesterday: 58 °F (at 1:53 AM)
Average temperature yesterday: 64 °F

Past Weeks' High & Low Weather Summary

 TemperatureHumidityPressure
High80 °F (Dec 23, 2:53 PM)100% (Dec 16, 7:53 AM)30.28 "Hg (Dec 16, 7:53 AM)
Low51 °F (Dec 13, 5:53 AM)30% (Dec 13, 3:53 PM)29.80 "Hg (Dec 24, 3:53 PM)
Average64 °F76%30.08 "Hg
* Reported Dec 12 6:53 AM — Dec 27 6:53 AM, St. Petersburg, Weather by CustomWeather, © 2014

Note: Actual official high and low records may vary slightly from our data, if they occured in-between our weather recording intervals... More about our weather records

Advertising

St. Petersburg weather history for previous 24 hours

 ConditionsComfort  
Time TempWeatherWind HumidityBarometerVisibility
6:53 AM
Dec 27
66 °FOvercast.6 mph84%30.19 "Hg10 mi
5:53 AM65 °FOvercast.6 mph87%30.18 "Hg10 mi
4:53 AM65 °FOvercast.8 mph85%30.17 "Hg10 mi
3:53 AM66 °FPassing clouds.7 mph84%30.17 "Hg10 mi
3:04 AM66 °FPassing clouds.8 mph84%30.17 "Hg10 mi
2:53 AM66 °FPassing clouds.7 mph81%30.17 "Hg10 mi
1:53 AM67 °FMostly cloudy.10 mph79%30.18 "Hg10 mi
12:53 AM67 °FMostly cloudy.6 mph79%30.19 "Hg10 mi
11:53 PM
Dec 26
67 °FOvercast.6 mph79%30.20 "Hg10 mi
10:53 PM68 °FMostly cloudy.8 mph76%30.21 "Hg10 mi
9:53 PM68 °FOvercast.7 mph73%30.21 "Hg10 mi
8:53 PM68 °FOvercast.6 mph73%30.22 "Hg10 mi
7:53 PM68 °FMostly cloudy.7 mph73%30.21 "Hg10 mi
6:53 PM68 °FOvercast.6 mph76%30.20 "Hg10 mi
5:53 PM68 °FOvercast.6 mph76%30.19 "Hg10 mi
4:53 PM69 °FScattered clouds.9 mph70%30.17 "Hg10 mi
3:53 PM69 °FCloudy.5 mph68%30.17 "Hg10 mi
2:53 PM70 °FOvercast.6 mph64%30.16 "Hg10 mi
1:53 PM69 °FMostly cloudy.5 mph63%30.17 "Hg10 mi
12:53 PM68 °FScattered clouds.7 mph63%30.18 "Hg10 mi
11:53 AM66 °FSunny.7 mph70%30.22 "Hg10 mi
10:53 AM63 °FSunny.9 mph75%30.24 "Hg10 mi
9:53 AM61 °FSunny.10 mph78%30.24 "Hg10 mi
8:53 AM60 °FSunny.12 mph78%30.23 "Hg10 mi
Weather by CustomWeather, © 2014

See weather overviewHow to use our weather pages